Starlink 31947

operational
NORAD ID: 59835 Int'l Des: 2024-097 Owner: SPXS Country: US Constellation: starlink
LEOCIRCULAR

About Starlink 31947

Description loading...

Live Position

Loading 3D Globe...

Upcoming Passes

Altitude History

Altitude vs Time

uPlot chart will show altitude changes over time

Two-Line Element Set

1 59835U 24097A 25350.08841527 .00004320 00000-0 16642-3 0 9993
2 59835 43.0001 26.2805 0000859 272.5196 87.5557 15.27575064 89137
Epoch: Dec 16, 2025 • Age: 32 hours

Current Status

Altitude 482.3 km
Velocity 7.63 km/s
Sub-Earth Point 11.42°N, 53.29°W
Launch Date May 23, 2024
Age 1.5 years
Type internet

Technical Details

Classification Payload
Mass 730.00 kg
Dry Mass 700.00 kg
Total Mass 730.00 kg
Length 0.30 m
Diameter 4.10 m
Span 29.00 m
Shape Box + pan
Manufacturer SPXS
Bus Type Starlink V2M
Phase Status In Orbit
Owner/State SPXS/US

Large Constellations

Loading constellations...